This is the latest recevied weather packets stored in our database for station/object NY5V. If no packets are shown the sender has not sent any weather packets the latest 10 day(s).
| Time | Temp. | Humidity | Pressure | Rain* | Wind** | Luminosity | Snow |
|---|---|---|---|---|---|---|---|
| 1777670599 | 14.44° C | 82% | 1013.8 hPa | 0 mm | - | 86 W/m² | - |
| 1777670000 | 14.44° C | 83% | 1013.8 hPa | 0 mm | - | 97 W/m² | - |
| 1777669400 | 14.44° C | 84% | 1014 hPa | 0 mm | - | 113 W/m² | - |
| 1777668799 | 14.44° C | 84% | 1014.8 hPa | 0 mm | - | 79 W/m² | - |
| 1777668198 | 14.44° C | 83% | 1015 hPa | 0 mm | - | 72 W/m² | - |
| 1777667597 | 14.44° C | 83% | 1015.4 hPa | 0 mm | - | 59 W/m² | - |
| 1777666997 | 14.44° C | 82% | 1016 hPa | 0 mm | - | 38 W/m² | - |
| 1777666396 | 14.44° C | 84% | 1015.4 hPa | 0 mm | - | 52 W/m² | - |
| 1777665796 | 14.44° C | 82% | 1014.6 hPa | 0 mm | - | 98 W/m² | - |
| 1777665195 | 15° C | 83% | 1013.7 hPa | 0 mm | - | 152 W/m² | - |
| 1777664593 | 15° C | 85% | 1013.5 hPa | 0 mm | - | 213 W/m² | - |
| 1777663989 | 14.44° C | 86% | 1013.5 hPa | 0 mm | - | 226 W/m² | - |
| 1777663388 | 14.44° C | 87% | 1013.3 hPa | 0 mm | - | 185 W/m² | - |
| 1777662782 | 13.89° C | 90% | 1013.4 hPa | 0 mm | - | 423 W/m² | - |
| 1777662181 | 12.78° C | 92% | 1014.1 hPa | 0 mm | - | 204 W/m² | - |
| 1777661578 | 12.78° C | 96% | 1014 hPa | 0 mm | - | 158 W/m² | - |
| 1777660976 | 12.78° C | 98% | 1014.3 hPa | 0 mm | - | 127 W/m² | - |
| 1777660375 | 12.22° C | 99% | 1014.7 hPa | 0 mm | - | 121 W/m² | - |
| 1777659774 | 12.22° C | 99% | 1015.1 hPa | 0 mm | - | 61 W/m² | - |
| 1777659174 | 12.22° C | 99% | 1015.5 hPa | 0 mm | - | 74 W/m² | - |
| 1777658573 | 11.67° C | 99% | 1015.8 hPa | 1.78 mm | - | 56 W/m² | - |
| 1777657967 | 11.67° C | 99% | 1016 hPa | 0 mm | - | 38 W/m² | - |
| 1777657366 | 11.67° C | 99% | 1016.1 hPa | 0 mm | - | 41 W/m² | - |
| 1777656767 | 11.67° C | 99% | 1016.1 hPa | 0 mm | - | 31 W/m² | - |
| 1777656164 | 11.67° C | 99% | 1016.1 hPa | 0 mm | - | 48 W/m² | - |
* Rain latest hour (hover to see other rain measurements)
** Current wind speed in m/s (hover to see current wind gust speed)